Sterling Muni, Sterling, CO, CO

6:07 PM MST on November 24, 2017 (GMT -0700)
Sterling Municipal

Weather History for KSTK - May, 2014

Change the Weather History Date:

Friday, May 30, 2014

  Actual Average Record
Temperature  
Mean Temperature 72 °F -  
Max Temperature 86 °F 76 °F 86 °F (2014)
Min Temperature 59 °F 47 °F 41 °F (2013)
Cooling Degree Days 8    
Growing Degree Days 22 (Base 50)    
Moisture  
Dew Point 58 °F    
Average Humidity 70    
Maximum Humidity 100    
Minimum Humidity 37    
Precipitation  
Precipitation 0.10 in - - ()
Sea Level Pressure  
Sea Level Pressure 30.04 in    
Wind  
Wind Speed 6 mph (NNE)    
Max Wind Speed 22 mph    
Max Gust Speed 28 mph    
Visibility 10 miles    
Events Rain , Thunderstorm    
Averages and records for this station are not official NWS values.
T = Trace of Precipitation, MM = Missing Value Source: NWS Daily Summary

Daily Weather History Graph

Daily Weather History Graph

Search for Another Location

Airport or City:

Trip Planner

Search our weather history database for the weather conditions in past years. The results will help you decide how hot, cold, wet, or windy it might be!

Date:

Astronomy

May. 30, 2014 Rise Set
Actual Time 5:25 AM MDT 8:16 PM MDT
Civil Twilight 4:52 AM MDT 8:48 PM MDT
Nautical Twilight 4:12 AM MDT 9:29 PM MDT
Astronomical Twilight 3:25 AM MDT 10:16 PM MDT
Moon 7:11 AM MDT (5/30) 9:54 PM MDT (5/30)
Length of Visible Light 15h 55m
Length of Day
14h 51m
Waxing Crescent, 4% of the Moon is Illuminated
May 30
Waxing Crescent
Jun 5
First Quarter
Jun 12
Full
Jun 19
Last Quarter
Jun 27
New

Hourly Weather History & Observations

Time (MDT) Temp. Heat Index Dew Point Humidity Pressure Visibility Wind Dir Wind Speed Gust Speed Precip Events Conditions
12:10 AM 71.6 °F - 51.8 °F 50% 29.99 in 10.0 mi ESE 3.5 mph - N/A   Clear
12:30 AM 71.6 °F - 51.8 °F 50% 29.98 in 10.0 mi ESE 3.5 mph - N/A   Clear
12:50 AM 69.8 °F - 51.8 °F 53% 29.98 in 10.0 mi South 4.6 mph - N/A   Clear
1:10 AM 68.0 °F - 53.6 °F 60% 29.98 in 10.0 mi WSW 6.9 mph - N/A   Clear
1:30 AM 66.2 °F - 53.6 °F 64% 29.98 in 10.0 mi SW 5.8 mph - N/A   Clear
1:50 AM 68.0 °F - 51.8 °F 56% 29.98 in 10.0 mi South 9.2 mph - N/A   Clear
2:10 AM 68.0 °F - 51.8 °F 56% 29.99 in 10.0 mi SSW 8.1 mph - N/A   Clear
2:30 AM 66.2 °F - 51.8 °F 60% 29.99 in 10.0 mi SSW 8.1 mph - N/A   Clear
3:10 AM 60.8 °F - 53.6 °F 77% 29.99 in 10.0 mi WSW 4.6 mph - N/A   Clear
3:30 AM 60.8 °F - 53.6 °F 77% 30.00 in 10.0 mi WSW 8.1 mph - N/A   Clear
3:50 AM 60.8 °F - 53.6 °F 77% 30.00 in 10.0 mi WSW 9.2 mph - N/A   Clear
4:10 AM 60.8 °F - 53.6 °F 77% 30.00 in 10.0 mi WSW 5.8 mph - N/A   Clear
4:30 AM 60.8 °F - 53.6 °F 77% 29.99 in 10.0 mi SW 4.6 mph - N/A   Scattered Clouds
4:50 AM 60.8 °F - 53.6 °F 77% 30.00 in 10.0 mi Calm Calm - N/A   Clear
5:10 AM 60.8 °F - 51.8 °F 72% 30.01 in 10.0 mi Calm Calm - N/A   Clear
5:30 AM 59.0 °F - 53.6 °F 82% 30.01 in 10.0 mi Calm Calm - N/A   Clear
5:50 AM 60.8 °F - 53.6 °F 77% 30.02 in 10.0 mi Calm Calm - N/A   Clear
6:10 AM 62.6 °F - 55.4 °F 77% 30.02 in 10.0 mi Calm Calm - N/A   Clear
6:30 AM 64.4 °F - 55.4 °F 73% 30.02 in 10.0 mi Calm Calm - N/A   Scattered Clouds
6:50 AM 68.0 °F - 55.4 °F 64% 30.02 in 10.0 mi Calm Calm - N/A   Scattered Clouds
7:10 AM 68.0 °F - 55.4 °F 64% 30.03 in 10.0 mi Calm Calm - N/A   Scattered Clouds
7:30 AM 69.8 °F - 55.4 °F 60% 30.03 in 10.0 mi Calm Calm - N/A   Scattered Clouds
8:10 AM 71.6 °F - 55.4 °F 57% 30.05 in 10.0 mi North 6.9 mph - N/A   Mostly Cloudy
8:30 AM 73.4 °F - 55.4 °F 53% 30.06 in 10.0 mi NNW 6.9 mph - N/A   Mostly Cloudy
8:50 AM 73.4 °F - 55.4 °F 53% 30.06 in 10.0 mi North 8.1 mph - N/A   Scattered Clouds
9:10 AM 75.2 °F - 55.4 °F 50% 30.06 in 10.0 mi NNE 12.7 mph - N/A   Clear
9:30 AM 75.2 °F - 55.4 °F 50% 30.06 in 10.0 mi NE 8.1 mph 16.1 mph N/A   Clear
9:50 AM 78.8 °F - 57.2 °F 47% 30.06 in 10.0 mi NE 12.7 mph - N/A   Clear
10:10 AM 78.8 °F - 60.8 °F 54% 30.06 in 10.0 mi NNE 13.8 mph - N/A   Clear
10:30 AM 78.8 °F - 60.8 °F 54% 30.07 in 10.0 mi NE 11.5 mph 17.3 mph N/A   Clear
10:50 AM 80.6 °F 81.5 °F 60.8 °F 51% 30.07 in 10.0 mi NE 8.1 mph 19.6 mph N/A   Clear
11:10 AM 80.6 °F 81.5 °F 60.8 °F 51% 30.06 in 10.0 mi NE 10.4 mph 19.6 mph N/A   Clear
11:30 AM 80.6 °F 81.1 °F 59.0 °F 48% 30.06 in 10.0 mi NNE 11.5 mph 19.6 mph N/A   Clear
12:10 PM 82.4 °F 82.5 °F 59.0 °F 45% 30.06 in 10.0 mi NNE 9.2 mph 16.1 mph N/A   Clear
12:30 PM 82.4 °F 82.0 °F 57.2 °F 42% 30.06 in 10.0 mi North 5.8 mph - N/A   Clear
12:50 PM 84.2 °F 83.0 °F 55.4 °F 37% 30.04 in 10.0 mi East 6.9 mph - N/A   Clear
1:10 PM 84.2 °F 83.5 °F 57.2 °F 40% 30.04 in 10.0 mi NNE 8.1 mph - N/A   Clear
1:30 PM 84.2 °F 83.5 °F 57.2 °F 40% 30.03 in 10.0 mi North 10.4 mph - N/A   Clear
1:50 PM 86.0 °F 85.4 °F 59.0 °F 40% 30.01 in 10.0 mi North 9.2 mph 18.4 mph N/A   Scattered Clouds
2:10 PM 84.2 °F 83.8 °F 59.0 °F 42% 30.01 in 10.0 mi North 10.4 mph - N/A   Scattered Clouds
2:30 PM 82.4 °F 82.5 °F 59.0 °F 45% 30.01 in 10.0 mi NNE 6.9 mph - N/A   Mostly Cloudy
3:10 PM 82.4 °F 82.5 °F 59.0 °F 45% 30.01 in 10.0 mi North 4.6 mph - N/A Thunderstorm Clear
3:30 PM 77.0 °F - 50.0 °F 39% 30.01 in 10.0 mi South 21.9 mph 27.6 mph N/A Thunderstorm Scattered Clouds
4:10 PM 66.2 °F - 60.8 °F 83% 30.04 in 10.0 mi WNW 15.0 mph - N/A Rain , Thunderstorm Light Thunderstorms and Rain
4:30 PM 64.4 °F - 59.0 °F 83% 30.04 in 10.0 mi NW 13.8 mph - N/A Rain , Thunderstorm Light Thunderstorms and Rain
4:50 PM 64.4 °F - 60.8 °F 88% 30.05 in 10.0 mi North 8.1 mph - N/A Rain , Thunderstorm Light Thunderstorms and Rain
5:10 PM 64.4 °F - 60.8 °F 88% 30.06 in 10.0 mi North 4.6 mph - 0.01 in Rain , Thunderstorm Light Thunderstorms and Rain
5:30 PM 62.6 °F - 60.8 °F 94% 30.04 in 10.0 mi NNE 12.7 mph - 0.02 in Rain Light Rain
5:50 PM 64.4 °F - 60.8 °F 88% 30.04 in 10.0 mi Calm Calm - 0.02 in Rain Light Rain
6:10 PM 64.4 °F - 60.8 °F 88% 30.05 in 10.0 mi North 9.2 mph - N/A Rain Light Rain
6:30 PM 64.4 °F - 60.8 °F 88% 30.06 in 10.0 mi NW 13.8 mph - N/A Rain Light Rain
6:50 PM 64.4 °F - 62.6 °F 94% 30.05 in 10.0 mi NNW 11.5 mph - N/A Rain Light Rain
7:10 PM 62.6 °F - 60.8 °F 94% 30.06 in 10.0 mi NNW 10.4 mph - 0.01 in Rain Light Rain
7:30 PM 62.6 °F - 60.8 °F 94% 30.07 in 10.0 mi NW 8.1 mph - 0.03 in Rain Light Rain
7:50 PM 62.6 °F - 60.8 °F 94% 30.08 in 10.0 mi NNE 4.6 mph - 0.05 in Rain Rain
8:10 PM 62.6 °F - 60.8 °F 94% 30.07 in 10.0 mi ENE 8.1 mph - 0.01 in Rain , Thunderstorm Rain
8:30 PM 62.6 °F - 62.6 °F 100% 30.09 in 10.0 mi ENE 5.8 mph - 0.02 in Rain Rain
8:50 PM 62.6 °F - 60.8 °F 94% 30.08 in 10.0 mi North 5.8 mph - 0.03 in   Light Drizzle
9:10 PM 62.6 °F - 62.6 °F 100% 30.08 in 10.0 mi NE 4.6 mph - N/A   Scattered Clouds
9:30 PM 62.6 °F - 62.6 °F 100% 30.10 in 10.0 mi NE 4.6 mph - N/A   Mostly Cloudy
9:50 PM 62.6 °F - 62.6 °F 100% 30.10 in 10.0 mi NNE 4.6 mph - N/A   Mostly Cloudy
10:10 PM 62.6 °F - 62.6 °F 100% 30.11 in 10.0 mi ENE 3.5 mph - N/A   Overcast
10:30 PM 62.6 °F - 62.6 °F 100% 30.12 in 10.0 mi NE 4.6 mph - N/A   Overcast
10:50 PM 62.6 °F - 62.6 °F 100% 30.11 in 7.0 mi North 5.8 mph - N/A   Overcast
11:10 PM 64.4 °F - 62.6 °F 94% 30.11 in 7.0 mi NE 4.6 mph - N/A   Overcast
11:30 PM 64.4 °F - 62.6 °F 94% 30.11 in 7.0 mi NNE 3.5 mph - N/A   Overcast
11:50 PM 62.6 °F - 62.6 °F 100% 30.10 in 7.0 mi NNE 3.5 mph - N/A   Overcast